Regional Weather Roundup
Issued by NWS

Home | Current Version | Previous Version | Graphics & Text | Print | Product List | Glossary On
Versions: 1 2 3 4 5 6 7 8 9 10 11 12 13 14 15 16 17 18 19 20 21 22 23 24 25 26 27 28 29 30 31 32 33 34 35 36 37 38 39 40 41 42 43 44 45 46 47 48 49 50
000
ASUS43 KMKX 171310
RWRWI

WISCONSIN REGIONAL WEATHER ROUNDUP
NATIONAL WEATHER SERVICE MILWAUKEE/SULLIVAN WI
700 AM CST SAT FEB 17 2018

NOTE: "FAIR" INDICATES FEW OR NO CLOUDS BELOW 12,000 FEET WITH NO
SIGNIFICANT WEATHER AND/OR OBSTRUCTIONS TO VISIBILITY.

WIZ001-002-006>008-014>016-023>028-171400-
NORTHWEST WISCONSIN

CITY           SKY/WX    TMP DP  RH WIND       PRES   REMARKS
SUPERIOR ARPT  FAIR      18  11  74 SW7       29.81S WCI   8
ASHLAND        FAIR      19  11  70 SW14      29.81F WCI   6
HAYWARD        MOCLDY    18  10  71 S9        29.82S WCI   7
SIREN          MOCLDY    22  13  70 SW12      29.84S WCI  10
CUMBERLAND     CLOUDY    19  10  68 SW5       29.84S WCI  13
RICE LAKE      MOCLDY    19  11  70 S3        29.87S
CHETEK         CLOUDY    19  10  68 S5        29.86F WCI  12
LADYSMITH      CLOUDY    13   7  75 S5        29.87F WCI   6
EAU CLAIRE     CLOUDY    19  10  68 S6        29.88F WCI  11
MENOMONIE      CLOUDY    22  11  62 S8        29.88F WCI  12
NEW RICHMOND   CLOUDY    22  12  67 S8        29.85F WCI  12
OSCEOLA        CLOUDY    21  14  73 CALM      29.89S
$$

WIZ003>005-009-010-017-018-171400-
NORTH CENTRAL WISCONSIN

CITY           SKY/WX    TMP DP  RH WIND       PRES   REMARKS
MANITOWISH WTR FAIR      13   6  72 SW7       29.79S WCI   3
ARBOR VITAE    FAIR      13   6  73 SW7       29.81S WCI   3
WOODRUFF       FAIR      13   6  73 SW7       29.81S WCI   3
RHINELANDER    FAIR      12   4  70 SW14      29.84S WCI  -3
EAGLE RIVER    FAIR      12   3  66 SW6       29.80F WCI   2
LAND O LAKES   FAIR      12   4  70 S6        29.79F WCI   3
PHILLIPS       FAIR      14   6  69 SW8       29.82S WCI   3
TOMAHAWK       FAIR      10   3  75 S3        29.86S
MEDFORD        CLOUDY    12   4  69 S9        29.86F WCI   0
MERRILL        MOCLDY    15   5  64 SW8       29.89S WCI   4
$$

WIZ029-030-035-036-043>047-171400-
CENTRAL WISCONSIN

CITY           SKY/WX    TMP DP  RH WIND       PRES   REMARKS
WAUSAU         FAIR      14   4  64 CALM      29.89F
MOSINEE        CLOUDY    16   7  67 S10       29.92S WCI   3
MARSHFIELD     FAIR      15   6  67 S8        29.89F WCI   4
STEVENS POINT  FAIR      16   6  64 SW10      29.94F WCI   3
WAUPACA        FAIR      20   7  56 S10       29.99R WCI   9
WAUTOMA        CLOUDY    18   8  65 S8        30.00S WCI   8
WISC RAPIDS    MOCLDY    19   5  54 SW12      29.95F WCI   7
CAMP DOUGLAS   FAIR      20   6  54 S10       29.96F WCI   9
$$

WIZ011>013-019>022-031-037>040-048>050-171400-
NORTHEAST WISCONSIN

CITY           SKY/WX    TMP DP  RH WIND       PRES   REMARKS
ANTIGO         MOCLDY    12   4  69 SW10      29.88S WCI  -1
SHAWANO        FAIR      19   6  59 S6        29.96S WCI  10
OCONTO         FAIR      18   4  54 SW7       29.98F WCI   9
STURGEON BAY   FAIR      20   4  50 S13       29.98F WCI   7
GREEN BAY      FAIR      18   6  59 S13       30.00F WCI   5
MANITOWOC      FAIR      20   4  50 SW8       30.04S WCI  10
APPLETON       MOCLDY    18   3  53 S14       29.98F WCI   4
CLINTONVILLE   FAIR      18   6  60 S8        29.96F WCI   7
OSHKOSH        FAIR      18   7  62 S12       30.00F WCI   5
$$

WIZ032>034-041-042-053>061-171400-
SOUTHWEST WISCONSIN

CITY           SKY/WX    TMP DP  RH WIND       PRES   REMARKS
LA CROSSE      CLOUDY    22   9  57 S12       29.96F WCI  10
SPARTA         FAIR      21   9  59 S7        29.97F WCI  13
VIROQUA        FAIR      19  10  67 S13G18    29.95F WCI   7
BOSCOBEL       FAIR      21   9  59 S6        30.04F WCI  13
PRAIRIE DU CHI MOCLDY    22   8  54 S5        30.04F WCI  16
PLATTEVILLE    CLOUDY    18  11  75 S8        30.04S WCI   7
$$

WIZ056-057-062-063-064-067-068-171400-
SOUTH CENTRAL WISCONSIN

CITY           SKY/WX    TMP DP  RH WIND       PRES   REMARKS
REEDSBURG      FAIR      18   8  63 SW6       30.01F WCI  10
BARABOO/DELLS  CLOUDY    19   7  60 SW8       30.00F WCI   8
LONE ROCK      FAIR      20  10  65 CALM      30.05S
MINERAL POINT  MOCLDY    19  12  73 SW5       30.02R WCI  13
MADISON        CLOUDY    18   6  59 S8        30.03F WCI   8
MIDDLETON      FAIR      19   9  64 SW6       30.04S WCI  11
WATERTOWN      FAIR      17   9  73 S6        30.03F WCI   8
MONROE         FAIR      18  10  73 S14       30.02F WCI   4
JANESVILLE     MOCLDY    21   7  53 S8        30.05F WCI  12
$$

WIZ051-052-058>065-066-070>072-171400-
SOUTHEAST WISCONSIN

CITY           SKY/WX    TMP DP  RH WIND       PRES   REMARKS
MILWAUKEE      MOCLDY    20   7  57 SW12      30.07F WCI   8
WAUKESHA       CLEAR     14   7  73 S12       30.06F WCI   0
MILWAUKEE/TIMM FAIR      19   3  49 SW8       30.07F WCI   9
RACINE         FAIR      18   7  62 S8        30.10F WCI   8
BURLINGTON     FAIR      16   7  67 S7        30.08F WCI   6
KENOSHA        FAIR      18   7  62 S8        30.09F WCI   8
FOND DU LAC    FAIR      19   4  51 SW13      30.03R WCI   6
SHEBOYGAN      FAIR      19   5  54 SW12      30.03F WCI   7
WEST BEND      FAIR      19   3  49 SW7       30.03F WCI  10
JUNEAU         FAIR      17   7  66 S8        30.04S WCI   6
$$

LSZ147-162-171400-
LAKE SUPERIOR

STATION/POSITION TIME  TEMP    WIND        PRES    WAVE
                       AIR SEA DIR/SP/G            HT/PER
                 (UTC) (F)     (DEG/KT/KT) (MB)    (FT/S)
DEVILS ISLAND    1200   20     230/ 19/ 22 1009.6F
SAXON HARBOR     1230   20     190/  6/ 14 1009.5R
$$

LMZ867-665-643>646-171400-
LAKE MICHIGAN

STATION/POSITION TIME  TEMP    WIND        PRES    WAVE
                       AIR SEA DIR/SP/G            HT/PER
                 (UTC) (F)     (DEG/KT/KT) (MB)    (FT/S)
NORTHPORT PIER   1240   18                 1014.9R
KEWAUNEE LAKESHO 1242   20     210/  7/  9 1015.5F
SHEBOYGAN LAKESH 1300   21     200/ 15/ 17 1018.2F
PORT WASHINGTON  1240   20     220/  7/ 11 1019.3F
MILWAUKEE LAKESH 1250   20     220/ 11/ 12   N/A
KENOSHA   LAKESH 1200   17      CALM  /  9 1020.0
$$

TC  - TEMPERATURE IN CELSIUS
VSB - VISIBILITY IN STATUTE MILES
WCI - WIND CHILL INDEX
HX  - HEAT INDEX





USA.gov is the U.S. government's official web portal to all federal, state and local government web resources and services.